QPF
0.00 0.00 0.02 0.07 0.07 0.01 0.00 0.00 0.00 0.00 0.00 0.00 0.00 0.00 0.00 0.00 0.00 0.00 0.00 0.00 0.00 0.00 0.00 0.00 0.00 0.00 0.00 0.00 0.00 0.00 0.00 0.00 0.00 0.00 0.00 0.00 0.00 0.00 0.00 0.00 0.00 0.00 0.00 0.00 0.00 0.00 0.00 0.00 0.00
0.00 0.00 0.05 0.09 0.02 0.00 0.00 0.00 0.00 0.00 0.00 0.00 0.00 0.00 0.00 0.00 0.00 0.00 0.00 0.00 0.00 0.00 0.00 0.00 0.00 0.00 0.00 0.00 0.00 0.00 0.00 0.00 0.00 0.00 0.00 0.00 0.00 0.00 0.00 0.00 0.00 0.00 0.00 0.00 0.00 0.00 0.00 0.00 0.00
0.00 0.01 0.02 0.10 0.01 0.00 0.00 0.00 0.00 0.00 0.00 0.00 0.00 0.00 0.00 0.00 0.00 0.00 0.00 0.00 0.00 0.00 0.00 0.00 0.00 0.00 0.00 0.00 0.00 0.00 0.00 0.00 0.00 0.00 0.00 0.00 0.00 0.00 0.00 0.00 0.00 0.00 0.00 0.00 0.00 0.00 0.00 0.00 0.00
0.00 0.01 0.00 0.03 0.01 0.00 0.00 0.00 0.00 0.00 0.00 0.00 0.00 0.00 0.00 0.00 0.00 0.00 0.00 0.00 0.00 0.00 0.00 0.00 0.00 0.00 0.00 0.00 0.00 0.00 0.00 0.00 0.00 0.00 0.00 0.00 0.00 0.00 0.00 0.00 0.00 0.00 0.00 0.00 0.00 0.00 0.00 0.00 0.00
0.00 0.00 0.00 0.00 0.00 0.00 0.00 0.00 0.00 0.00 0.00 0.00 0.00 0.00 0.00 0.00 0.00 0.00 0.00 0.00 0.00 0.00 0.00 0.00 0.00 0.00 0.00 0.00 0.00 0.00 0.00 0.00 0.00 0.00 0.00 0.00 0.00 0.00 0.00 0.00 0.00 0.00 0.00 0.00 0.00 0.00 0.00 0.00 0.00
0.00 0.00 0.00 0.00 0.00 0.00 0.00 0.00 0.00 0.00 0.00 0.00 0.00 0.00 0.00 0.00 0.00 0.00 0.00 0.00 0.00 0.00 0.00 0.00 0.00 0.00 0.00 0.00 0.00 0.00 0.00 0.00 0.00 0.00 0.00 0.00 0.00 0.00 0.00 0.00 0.00 0.00 0.00 0.00 0.00 0.00 0.00 0.00 0.00
0.00 0.00 0.00 0.00 0.00 0.00 0.00 0.00 0.00 0.00 0.00 0.00 0.00 0.00 0.00 0.00 0.00 0.00 0.00 0.00 0.00 0.00 0.00 0.00 0.00 0.00 0.00 0.00 0.00 0.00 0.00 0.00 0.00 0.00 0.00 0.00 0.00 0.00 0.00 0.00 0.00 0.00 0.00 0.00 0.00 0.00 0.00 0.00 0.00
0.01 0.00 0.00 0.00 0.00 0.00 0.00 0.00 0.00 0.00 0.00 0.00 0.00 0.00 0.00 0.00 0.00 0.00 0.00 0.00 0.00 0.00 0.00 0.00 0.00 0.00 0.00 0.00 0.00 0.00 0.00 0.00 0.00 0.00 0.00 0.00 0.00 0.00 0.00 0.00 0.00 0.00 0.00 0.00 0.00 0.00 0.00 0.00 0.00
0.01 0.00 0.00 0.00 0.00 0.00 0.00 0.00 0.00 0.00 0.00 0.00 0.00 0.00 0.00 0.00 0.00 0.00 0.00 0.00 0.00 0.00 0.00 0.00 0.00 0.00 0.00 0.00 0.00 0.00 0.00 0.00 0.00 0.00 0.00 0.00 0.00 0.00 0.00 0.00 0.00 0.00 0.00 0.00 0.00 0.00 0.00 0.00 0.00
0.00 0.00 0.00 0.00 0.00 0.00 0.00 0.00 0.00 0.00 0.00 0.00 0.00 0.00 0.00 0.00 0.00 0.00 0.00 0.00 0.00 0.00 0.00 0.00 0.00 0.00 0.00 0.00 0.00 0.00 0.00 0.00 0.00 0.00 0.00 0.00 0.00 0.00 0.00 0.00 0.00 0.00 0.00 0.00 0.00 0.00 0.00 0.00 0.00
0.00 0.00 0.00 0.00 0.00 0.00 0.00 0.00 0.00 0.00 0.00 0.00 0.00 0.00 0.00 0.00 0.00 0.00 0.00 0.00 0.00 0.00 0.00 0.00 0.00 0.00 0.00 0.00 0.00 0.00 0.00 0.00 0.00 0.00 0.00 0.00 0.00 0.00 0.00 0.00 0.00 0.00 0.00 0.00 0.00 0.00 0.00 0.00 0.00
0.01 0.00 0.00 0.00 0.00 0.00 0.00 0.00 0.00 0.00 0.01 0.00 0.00 0.00 0.00 0.00 0.00 0.00 0.00 0.00 0.00 0.00 0.00 0.00 0.00 0.00 0.00 0.00 0.00 0.00 0.00 0.00 0.00 0.00 0.00 0.00 0.00 0.00 0.00 0.00 0.00 0.00 0.00 0.00 0.00 0.00 0.00 0.00 0.00
0.00 0.01 0.00 0.00 0.03 0.01 0.00 0.00 0.00 0.00 0.00 0.01 0.00 0.00 0.00 0.00 0.00 0.00 0.00 0.00 0.00 0.00 0.00 0.00 0.00 0.00 0.00 0.00 0.00 0.00 0.00 0.00 0.00 0.00 0.00 0.00 0.00 0.00 0.00 0.00 0.00 0.00 0.00 0.00 0.00 0.00 0.00 0.00 0.00
0.00 0.00 0.00 0.00 0.01 0.00 0.00 0.01 0.02 0.02 0.00 0.00 0.00 0.00 0.00 0.00 0.00 0.00 0.00 0.00 0.00 0.00 0.00 0.00 0.00 0.00 0.00 0.00 0.00 0.00 0.00 0.00 0.00 0.00 0.00 0.00 0.00 0.00 0.00 0.00 0.00 0.00 0.00 0.00 0.00 0.00 0.00 0.00 0.00
0.00 0.00 0.00 0.00 0.01 0.00 0.00 0.01 0.01 0.01 0.00 0.00 0.00 0.00 0.00 0.00 0.00 0.00 0.00 0.00 0.00 0.00 0.00 0.00 0.00 0.00 0.00 0.00 0.00 0.00 0.00 0.00 0.00 0.00 0.00 0.00 0.00 0.00 0.00 0.00 0.00 0.00 0.00 0.00 0.00 0.00 0.00 0.00 0.00
0.00 0.00 0.01 0.02 0.01 0.01 0.01 0.01 0.04 0.01 0.00 0.00 0.00 0.00 0.00 0.00 0.00 0.00 0.00 0.00 0.00 0.00 0.00 0.00 0.00 0.00 0.00 0.00 0.00 0.00 0.00 0.00 0.00 0.00 0.00 0.00 0.00 0.00 0.00 0.00 0.00 0.00 0.00 0.00 0.00 0.00 0.00 0.00 0.00
0.00 0.00 0.01 0.02 0.00 0.00 0.00 0.02 0.10 0.02 0.02 0.00 0.00 0.00 0.00 0.00 0.00 0.00 0.00 0.00 0.00 0.00 0.00 0.00 0.00 0.00 0.00 0.00 0.00 0.00 0.00 0.00 0.00 0.00 0.00 0.00 0.00 0.00 0.00 0.00 0.00 0.00 0.00 0.00 0.00 0.00 0.00 0.00 0.00
0.00 0.00 0.00 0.01 0.01 0.01 0.00 0.03 0.03 0.03 0.03 0.02 0.01 0.00 0.00 0.00 0.00 0.00 0.00 0.00 0.00 0.00 0.00 0.00 0.00 0.00 0.00 0.00 0.00 0.00 0.00 0.00 0.00 0.00 0.00 0.00 0.00 0.00 0.00 0.00 0.00 0.00 0.00 0.00 0.00 0.00 0.00 0.00 0.00
0.00 0.00 0.00 0.00 0.00 0.01 0.02 0.01 0.02 0.02 0.02 0.02 0.02 0.03 0.02 0.01 0.00 0.00 0.00 0.00 0.00 0.00 0.00 0.00 0.00 0.00 0.00 0.00 0.00 0.00 0.00 0.00 0.00 0.00 0.00 0.00 0.00 0.00 0.00 0.00 0.00 0.00 0.00 0.00 0.00 0.00 0.00 0.00 0.00
0.00 0.00 0.00 0.00 0.00 0.01 0.01 0.01 0.01 0.00 0.02 0.06 0.01 0.01 0.01 0.00 0.00 0.00 0.00 0.00 0.00 0.00 0.00 0.00 0.00 0.00 0.00 0.00 0.00 0.00 0.00 0.00 0.00 0.00 0.00 0.00 0.00 0.00 0.00 0.00 0.00 0.00 0.00 0.00 0.00 0.00 0.00 0.00 0.00
0.00 0.00 0.00 0.00 0.00 0.00 0.00 0.00 0.01 0.00 0.00 0.06 0.04 0.00 0.00 0.00 0.00 0.00 0.00 0.00 0.00 0.00 0.00 0.00 0.00 0.00 0.00 0.00 0.00 0.00 0.00 0.00 0.00 0.00 0.00 0.00 0.00 0.00 0.00 0.00 0.00 0.00 0.00 0.00 0.00 0.00 0.00 0.00 0.00
0.00 0.00 0.00 0.00 0.00 0.00 0.00 0.00 0.00 0.02 0.02 0.05 0.01 0.00 0.00 0.00 0.00 0.00 0.00 0.00 0.00 0.00 0.00 0.00 0.00 0.00 0.00 0.00 0.00 0.00 0.00 0.00 0.00 0.00 0.00 0.00 0.00 0.00 0.00 0.00 0.00 0.00 0.00 0.00 0.00 0.00 0.00 0.00 0.00
0.00 0.00 0.00 0.00 0.00 0.00 0.00 0.00 0.00 0.00 0.03 0.13 0.05 0.00 0.00 0.00 0.00 0.00 0.00 0.00 0.00 0.00 0.00 0.00 0.00 0.00 0.00 0.00 0.00 0.00 0.00 0.00 0.00 0.00 0.00 0.00 0.00 0.00 0.00 0.00 0.00 0.00 0.00 0.00 0.00 0.00 0.00 0.00 0.00
0.00 0.00 0.00 0.00 0.00 0.00 0.00 0.00 0.00 0.00 0.01 0.07 0.06 0.01 0.00 0.00 0.00 0.00 0.00 0.00 0.00 0.00 0.00 0.00 0.00 0.00 0.00 0.00 0.00 0.00 0.00 0.00 0.00 0.00 0.00 0.00 0.00 0.00 0.00 0.00 0.00 0.00 0.00 0.00 0.00 0.00 0.00 0.00 0.00
0.00 0.00 0.00 0.00 0.00 0.00 0.00 0.00 0.00 0.00 0.00 0.01 0.02 0.02 0.02 0.00 0.00 0.00 0.00 0.00 0.00 0.00 0.00 0.00 0.00 0.00 0.00 0.00 0.00 0.00 0.00 0.00 0.00 0.00 0.00 0.00 0.00 0.00 0.00 0.00 0.00 0.00 0.00 0.00 0.00 0.00 0.00 0.00 0.00
0.00 0.00 0.00 0.00 0.00 0.00 0.02 0.01 0.01 0.01 0.02 0.02 0.04 0.03 0.01 0.00 0.00 0.00 0.00 0.00 0.00 0.00 0.00 0.00 0.00 0.00 0.00 0.00 0.00 0.00 0.00 0.00 0.00 0.00 0.00 0.00 0.00 0.00 0.00 0.00 0.00 0.00 0.00 0.00 0.01 0.00 0.04 0.03 0.02
0.00 0.00 0.00 0.00 0.00 0.00 0.01 0.00 0.03 0.05 0.04 0.07 0.01 0.01 0.00 0.00 0.00 0.00 0.00 0.00 0.00 0.00 0.00 0.00 0.00 0.00 0.02 0.06 0.02 0.01 0.01 0.01 0.00 0.00 0.00 0.00 0.00 0.00 0.00 0.00 0.00 0.00 0.00 0.03 0.05 0.05 0.07 0.05 0.01
0.00 0.00 0.00 0.00 0.00 0.00 0.01 0.00 0.01 0.04 0.03 0.02 0.00 0.02 0.02 0.00 0.00 0.00 0.00 0.00 0.00 0.00 0.00 0.00 0.00 0.00 0.13 0.12 0.05 0.03 0.01 0.03 0.02 0.01 0.01 0.00 0.00 0.00 0.00 0.00 0.00 0.00 0.02 0.03 0.01 0.02 0.01 0.00 0.00
0.00 0.00 0.00 0.00 0.00 0.02 0.01 0.00 0.00 0.03 0.01 0.00 0.01 0.01 0.01 0.00 0.00 0.00 0.00 0.00 0.00 0.00 0.00 0.00 0.00 0.00 0.08 0.11 0.09 0.11 0.19 0.04 0.06 0.02 0.01 0.00 0.00 0.00 0.00 0.00 0.00 0.01 0.01 0.00 0.00 0.00 0.00 0.00 0.00
0.00 0.00 0.00 0.00 0.00 0.00 0.00 0.01 0.06 0.14 0.04 0.03 0.00 0.00 0.01 0.00 0.00 0.00 0.00 0.00 0.00 0.00 0.00 0.02 0.01 0.01 0.04 0.05 0.06 0.22 0.17 0.05 0.07 0.01 0.00 0.00 0.00 0.00 0.00 0.00 0.00 0.00 0.00 0.00 0.00 0.00 0.00 0.00 0.00
MSLP
1012.18 1012.79 1013.05 1013.50 1014.94 1014.41 1012.42 1010.61 1009.30 1009.25 1009.02 1008.63 1008.80 1009.62 1010.93 1011.44 1012.20 1013.88 1014.04 1014.16 1014.94 1015.80 1016.35 1016.28 1016.72 1017.03 1017.40 1017.76 1017.89 1017.93 1017.96 1017.96 1017.99 1018.10 1018.20 1018.27 1018.30 1018.32 1018.30 1018.18 1017.98 1017.84 1017.73 1017.65 1017.48 1017.39 1017.24 1017.09 1016.94
1011.33 1011.93 1012.90 1014.94 1016.03 1014.24 1012.34 1009.97 1009.25 1008.72 1008.51 1008.45 1009.00 1009.78 1010.67 1011.94 1012.21 1013.10 1013.45 1014.37 1015.00 1015.87 1016.44 1016.58 1016.88 1017.16 1017.27 1017.69 1017.93 1018.00 1018.02 1018.05 1018.08 1018.12 1018.19 1018.30 1018.39 1018.38 1018.33 1018.28 1018.20 1017.98 1017.82 1017.64 1017.57 1017.49 1017.46 1017.36 1017.15
1010.82 1010.88 1013.00 1015.58 1015.64 1013.53 1011.20 1009.22 1008.54 1008.16 1008.19 1008.51 1009.41 1009.88 1010.63 1011.69 1012.23 1012.96 1013.14 1014.38 1015.01 1015.73 1016.30 1016.60 1016.92 1017.15 1017.40 1017.66 1017.99 1018.15 1018.20 1018.19 1018.20 1018.19 1018.27 1018.40 1018.45 1018.44 1018.35 1018.28 1018.17 1018.03 1017.90 1017.77 1017.57 1017.41 1017.38 1017.28 1017.11
1010.50 1011.58 1013.05 1014.52 1013.72 1011.35 1009.89 1008.55 1007.97 1008.02 1008.18 1008.47 1009.38 1010.56 1011.24 1011.54 1011.99 1012.51 1012.92 1014.02 1014.91 1015.78 1016.12 1016.44 1016.61 1016.96 1017.36 1017.67 1018.02 1018.21 1018.28 1018.33 1018.26 1018.12 1018.26 1018.32 1018.37 1018.38 1018.26 1018.22 1018.26 1018.24 1018.04 1017.82 1017.66 1017.49 1017.35 1017.22 1017.03
1010.46 1011.53 1012.13 1011.78 1011.22 1009.73 1008.62 1007.88 1007.65 1007.88 1008.17 1008.78 1009.41 1010.90 1011.54 1011.79 1012.00 1012.34 1013.37 1014.08 1014.69 1015.58 1016.03 1016.44 1016.64 1016.85 1017.26 1017.69 1017.95 1018.20 1018.33 1018.43 1018.48 1018.44 1018.46 1018.48 1018.48 1018.52 1018.51 1018.47 1018.38 1018.26 1018.08 1017.89 1017.69 1017.48 1017.29 1017.15 1016.94
1010.84 1011.09 1011.57 1010.80 1009.55 1008.78 1008.20 1007.68 1007.58 1008.04 1008.45 1008.91 1009.92 1010.88 1011.62 1011.71 1012.03 1012.37 1012.84 1013.70 1014.07 1015.26 1015.97 1016.45 1016.76 1017.01 1017.34 1017.78 1018.02 1018.10 1018.24 1018.36 1018.43 1018.40 1018.43 1018.41 1018.43 1018.61 1018.66 1018.44 1018.36 1018.30 1018.10 1017.93 1017.68 1017.49 1017.33 1017.15 1016.85
1010.26 1010.52 1009.79 1009.26 1009.12 1008.51 1008.07 1007.60 1008.01 1008.34 1008.58 1008.80 1009.38 1010.67 1011.40 1011.62 1011.86 1012.21 1012.45 1013.73 1014.45 1015.05 1016.00 1016.58 1016.88 1017.16 1017.34 1017.65 1017.88 1017.95 1018.08 1018.19 1018.24 1018.26 1018.28 1018.36 1018.46 1018.49 1018.52 1018.39 1018.31 1018.13 1018.02 1017.82 1017.51 1017.31 1017.14 1016.92 1016.58
1009.00 1009.43 1008.52 1008.21 1008.36 1008.24 1007.86 1007.89 1007.82 1008.16 1008.73 1008.64 1008.86 1010.24 1011.39 1011.64 1011.69 1012.06 1012.67 1013.31 1014.56 1015.14 1015.63 1016.33 1016.75 1017.10 1017.36 1017.54 1017.64 1017.72 1017.86 1017.98 1018.12 1018.20 1018.29 1018.24 1018.26 1018.24 1018.24 1018.21 1018.16 1017.97 1017.89 1017.80 1017.49 1017.22 1017.09 1016.86 1016.57
1007.44 1007.70 1007.92 1007.74 1007.85 1007.70 1007.54 1007.80 1007.57 1007.82 1008.44 1008.82 1009.22 1010.02 1010.82 1011.22 1011.65 1012.20 1012.98 1013.60 1013.99 1014.80 1015.38 1015.95 1016.48 1016.93 1017.15 1017.42 1017.39 1017.53 1017.54 1017.79 1018.08 1018.09 1017.99 1017.93 1018.02 1018.13 1018.10 1018.07 1018.06 1017.75 1017.77 1017.73 1017.51 1017.20 1017.02 1016.68 1016.30
1006.56 1007.52 1007.05 1007.09 1007.16 1007.28 1006.98 1007.33 1007.47 1007.87 1008.49 1009.21 1009.78 1010.51 1010.83 1011.22 1011.70 1012.43 1013.36 1013.92 1014.27 1014.63 1015.22 1015.89 1016.36 1016.68 1017.03 1016.93 1017.18 1017.53 1017.52 1017.86 1018.10 1018.05 1017.96 1017.87 1017.88 1017.74 1017.64 1017.76 1017.79 1017.72 1017.69 1017.52 1017.12 1017.13 1016.82 1016.71 1016.57
1006.54 1006.74 1006.62 1006.64 1006.63 1006.68 1006.96 1007.04 1006.78 1007.59 1008.51 1008.85 1009.58 1010.37 1010.99 1011.57 1011.91 1012.49 1013.25 1013.70 1014.10 1014.51 1014.84 1015.17 1015.86 1016.41 1016.79 1016.76 1017.44 1017.65 1017.54 1017.84 1017.92 1018.04 1017.98 1017.98 1017.97 1017.98 1018.02 1018.02 1018.10 1018.04 1017.70 1017.66 1017.36 1017.33 1017.05 1016.88 1016.66
1007.07 1006.74 1007.10 1006.71 1006.52 1006.65 1006.87 1006.90 1006.90 1007.18 1007.94 1008.33 1009.24 1010.02 1010.88 1011.66 1012.04 1012.49 1013.10 1013.64 1013.94 1014.39 1014.77 1015.27 1015.34 1015.99 1016.38 1016.68 1017.02 1017.24 1017.39 1017.76 1018.05 1017.90 1017.93 1018.14 1018.24 1018.17 1018.29 1018.14 1018.14 1018.02 1017.93 1017.76 1017.58 1017.52 1017.11 1016.92 1016.67
1007.83 1007.88 1007.22 1007.26 1007.56 1006.97 1006.72 1008.25 1008.47 1007.70 1007.53 1008.15 1009.06 1009.93 1010.76 1011.54 1011.96 1012.37 1012.70 1013.32 1013.92 1014.44 1015.26 1015.55 1015.67 1016.06 1016.14 1016.55 1016.84 1017.04 1017.44 1017.54 1017.86 1018.05 1018.02 1018.15 1018.28 1018.30 1018.26 1018.26 1018.18 1018.04 1017.92 1017.96 1017.80 1017.59 1017.36 1016.98 1016.65
1007.24 1007.44 1007.70 1007.16 1007.65 1007.76 1007.44 1009.00 1010.51 1009.01 1008.75 1008.60 1009.21 1010.02 1010.67 1011.29 1011.75 1012.20 1012.84 1013.71 1014.12 1014.60 1015.34 1015.57 1015.84 1016.04 1016.26 1016.59 1016.66 1016.82 1017.10 1017.34 1017.87 1018.06 1017.98 1018.03 1018.20 1018.21 1018.21 1018.46 1018.21 1018.01 1017.99 1017.96 1017.66 1017.76 1017.50 1017.14 1016.84
1008.04 1008.52 1007.95 1007.80 1007.37 1008.51 1007.57 1008.94 1009.31 1009.26 1009.41 1008.96 1009.27 1009.90 1010.40 1010.90 1011.31 1011.67 1012.20 1013.17 1013.59 1014.32 1014.80 1015.43 1015.79 1016.02 1016.44 1016.71 1016.69 1017.09 1017.30 1017.55 1017.95 1017.90 1017.79 1017.85 1017.92 1017.98 1018.22 1018.41 1018.12 1018.05 1017.98 1017.93 1017.76 1017.69 1017.44 1017.40 1016.94
1008.08 1009.54 1009.80 1008.47 1008.48 1008.22 1008.92 1011.16 1010.43 1010.28 1010.23 1009.48 1009.32 1009.61 1009.95 1010.33 1010.55 1011.04 1011.52 1012.37 1012.87 1013.66 1014.28 1014.88 1015.50 1016.16 1016.61 1016.82 1017.01 1017.36 1017.45 1017.45 1017.55 1017.92 1017.76 1017.68 1017.86 1017.92 1018.02 1018.26 1018.13 1017.97 1018.08 1018.04 1018.02 1018.02 1017.87 1017.66 1017.40
1007.88 1009.09 1009.43 1008.49 1006.68 1008.64 1009.52 1012.00 1012.82 1011.93 1012.74 1010.23 1009.46 1009.12 1009.28 1009.63 1010.14 1010.73 1011.23 1011.83 1012.50 1013.15 1013.90 1014.64 1015.28 1015.97 1016.53 1016.94 1017.20 1017.37 1017.32 1017.40 1017.44 1017.47 1017.77 1017.59 1017.53 1017.85 1017.87 1018.06 1017.87 1018.04 1018.20 1018.22 1018.24 1018.12 1018.13 1018.01 1017.46
1007.82 1008.16 1008.07 1008.11 1008.60 1009.86 1010.84 1012.90 1014.16 1014.02 1012.26 1011.24 1011.12 1010.66 1009.64 1009.53 1009.45 1009.93 1010.83 1011.54 1012.38 1012.99 1013.72 1014.52 1015.28 1015.82 1016.49 1016.80 1017.03 1017.26 1017.28 1017.25 1017.20 1017.22 1017.29 1017.34 1017.31 1017.77 1017.75 1018.01 1018.09 1018.01 1018.39 1018.42 1018.35 1018.28 1018.04 1018.05 1017.71
1006.35 1007.07 1007.38 1008.89 1010.06 1011.00 1012.74 1015.17 1014.71 1014.56 1012.10 1011.04 1011.57 1013.06 1010.18 1009.85 1008.99 1009.39 1010.40 1011.42 1012.52 1013.42 1014.04 1014.76 1015.33 1015.92 1016.25 1016.87 1017.36 1017.53 1017.66 1017.19 1017.13 1016.89 1016.77 1016.96 1017.16 1017.57 1017.62 1017.92 1018.17 1018.11 1018.46 1018.46 1018.39 1018.35 1018.35 1018.06 1017.86
1006.12 1006.59 1007.62 1009.35 1010.48 1011.21 1012.00 1013.70 1013.92 1013.70 1013.14 1010.92 1012.49 1012.52 1011.53 1010.15 1009.87 1010.45 1011.00 1011.84 1012.61 1013.47 1014.07 1014.82 1015.32 1015.79 1016.13 1016.62 1016.97 1017.11 1016.95 1016.96 1016.86 1016.60 1016.75 1016.79 1016.98 1017.18 1017.55 1017.70 1018.13 1018.04 1018.38 1018.48 1018.42 1018.50 1018.65 1018.40 1018.04
1005.70 1006.54 1007.57 1009.02 1010.04 1011.37 1013.08 1013.73 1014.16 1014.72 1013.73 1011.90 1012.06 1011.93 1010.96 1010.08 1010.37 1010.87 1011.68 1012.68 1013.31 1013.73 1014.20 1014.84 1015.38 1015.86 1016.32 1016.68 1017.05 1017.06 1016.92 1016.94 1016.92 1016.70 1016.99 1016.83 1016.81 1017.00 1017.22 1017.40 1017.71 1017.93 1018.15 1018.40 1018.59 1018.49 1018.59 1018.80 1018.17
1005.69 1006.07 1007.18 1008.50 1009.97 1011.46 1012.62 1014.91 1014.70 1015.66 1014.99 1014.02 1012.83 1012.15 1010.68 1010.50 1010.68 1011.26 1011.79 1012.62 1013.22 1014.04 1014.59 1015.19 1015.87 1016.30 1016.68 1017.05 1017.26 1017.46 1017.48 1017.62 1017.19 1017.09 1017.04 1016.96 1016.75 1016.76 1016.88 1017.02 1017.36 1017.75 1017.90 1018.20 1018.28 1018.34 1018.35 1018.53 1018.70
1005.52 1006.14 1007.47 1008.84 1010.76 1012.18 1013.40 1014.19 1015.28 1016.06 1016.29 1015.84 1014.32 1012.26 1010.98 1010.84 1011.16 1011.67 1012.34 1013.40 1013.95 1014.58 1015.04 1015.45 1015.85 1016.23 1016.65 1016.94 1017.12 1017.37 1017.46 1017.50 1017.13 1017.20 1017.10 1016.95 1016.75 1016.53 1016.66 1016.86 1017.11 1017.49 1017.73 1017.84 1018.03 1018.02 1018.04 1018.12 1018.27
1005.08 1006.38 1008.07 1010.00 1011.85 1013.65 1012.73 1013.60 1015.08 1016.08 1015.36 1014.66 1013.42 1011.78 1011.17 1011.05 1011.43 1011.81 1012.58 1013.20 1013.95 1014.54 1015.11 1015.42 1015.83 1016.06 1016.12 1016.08 1016.14 1016.66 1017.06 1017.24 1017.28 1017.19 1017.24 1016.97 1016.77 1016.53 1016.63 1016.81 1016.96 1017.05 1017.25 1017.46 1017.51 1017.56 1017.63 1017.63 1017.61
1005.30 1007.23 1009.53 1011.63 1013.21 1013.84 1013.28 1013.61 1014.67 1015.16 1014.42 1012.94 1012.16 1011.86 1011.36 1010.82 1011.53 1012.06 1012.51 1012.94 1013.58 1014.35 1014.88 1015.23 1015.51 1015.50 1015.44 1015.61 1015.92 1016.07 1016.24 1016.54 1016.94 1017.02 1017.21 1017.15 1016.90 1016.61 1016.71 1016.83 1016.89 1016.92 1016.77 1016.76 1016.80 1017.08 1017.12 1017.10 1017.18
1005.76 1008.09 1010.38 1012.34 1013.58 1014.32 1013.98 1014.64 1014.77 1014.41 1013.50 1011.99 1011.62 1011.85 1011.13 1010.83 1011.26 1011.85 1012.02 1012.34 1013.10 1013.88 1014.37 1014.79 1014.88 1015.11 1015.85 1016.16 1016.11 1015.52 1015.62 1015.98 1016.39 1016.61 1016.71 1016.72 1016.84 1016.69 1016.51 1016.54 1016.48 1016.35 1016.17 1016.21 1016.38 1016.67 1016.62 1016.67 1016.50
1006.86 1008.32 1009.69 1011.88 1013.42 1014.39 1015.08 1014.62 1014.54 1014.98 1015.25 1012.97 1011.96 1011.58 1010.88 1010.93 1011.11 1011.40 1011.66 1012.10 1012.78 1013.36 1013.57 1013.88 1014.08 1014.71 1015.21 1015.57 1015.52 1015.24 1015.17 1015.80 1016.07 1016.26 1016.27 1016.27 1016.39 1016.30 1016.21 1016.02 1016.20 1015.99 1015.80 1015.87 1016.07 1016.16 1016.20 1016.14 1016.04
1007.39 1008.68 1010.31 1012.24 1014.05 1014.85 1015.61 1015.53 1015.45 1014.29 1013.26 1013.52 1012.83 1011.38 1010.85 1010.55 1010.80 1011.16 1011.33 1011.58 1012.01 1012.50 1012.74 1013.13 1013.28 1013.89 1015.24 1016.04 1014.98 1015.54 1014.98 1015.30 1015.79 1015.74 1015.83 1015.89 1015.94 1015.98 1015.88 1015.83 1015.67 1015.48 1015.65 1015.67 1015.72 1015.89 1015.87 1016.00 1015.82
1008.66 1009.76 1012.05 1013.36 1014.19 1014.67 1014.92 1015.09 1014.44 1014.63 1013.81 1013.33 1011.94 1011.50 1010.32 1010.48 1010.63 1010.85 1011.10 1011.11 1011.25 1011.47 1012.09 1012.40 1012.74 1013.09 1013.98 1014.67 1014.63 1015.10 1016.16 1015.46 1015.66 1015.35 1015.35 1015.34 1015.51 1015.56 1015.50 1015.31 1015.42 1015.68 1015.78 1015.88 1016.02 1016.12 1016.14 1016.02 1015.92
1008.91 1010.24 1011.53 1013.58 1013.47 1013.26 1013.55 1014.41 1014.36 1013.61 1013.62 1011.85 1011.75 1011.00 1010.12 1009.87 1010.15 1010.50 1010.57 1010.52 1010.85 1011.21 1011.48 1012.04 1012.58 1012.86 1013.36 1013.31 1013.87 1015.46 1015.56 1015.10 1015.38 1015.06 1014.88 1014.85 1015.04 1015.06 1015.06 1015.16 1015.45 1016.04 1016.10 1016.37 1016.41 1016.43 1016.32 1016.24 1016.12
Thickness
5822 5813 5811 5799 5747 5754 5758 5778 5803 5796 5796 5815 5819 5803 5785 5787 5771 5737 5791 5793 5785 5778 5770 5770 5765 5760 5755 5751 5748 5746 5745 5743 5741 5739 5736 5733 5731 5730 5729 5728 5729 5728 5727 5726 5726 5725 5725 5724 5723
5828 5820 5808 5776 5739 5739 5751 5798 5789 5800 5811 5820 5815 5807 5793 5774 5793 5787 5788 5795 5785 5776 5770 5767 5763 5759 5756 5751 5747 5745 5743 5741 5739 5737 5734 5731 5728 5726 5725 5725 5724 5724 5724 5723 5722 5721 5720 5720 5720
5841 5837 5797 5752 5733 5741 5757 5803 5802 5814 5820 5816 5803 5811 5801 5785 5797 5792 5800 5793 5785 5778 5771 5767 5762 5758 5754 5750 5746 5743 5740 5739 5737 5735 5733 5730 5727 5725 5724 5722 5721 5721 5721 5720 5720 5719 5718 5718 5718
5836 5819 5796 5750 5748 5778 5793 5811 5819 5815 5820 5823 5812 5787 5801 5809 5802 5803 5807 5797 5788 5779 5774 5768 5764 5758 5752 5749 5744 5741 5738 5736 5734 5733 5729 5727 5725 5722 5721 5719 5717 5715 5715 5716 5717 5716 5716 5715 5716
5838 5807 5774 5775 5778 5804 5817 5827 5824 5815 5815 5811 5813 5785 5787 5805 5811 5809 5801 5796 5788 5779 5774 5767 5762 5758 5753 5747 5743 5740 5737 5734 5731 5729 5726 5724 5721 5718 5716 5714 5713 5712 5711 5711 5711 5711 5711 5711 5711
5811 5807 5764 5766 5801 5814 5822 5831 5826 5815 5814 5813 5804 5794 5791 5813 5809 5807 5804 5799 5795 5781 5770 5763 5759 5755 5751 5745 5741 5738 5734 5731 5728 5725 5723 5720 5717 5713 5710 5710 5709 5707 5707 5706 5706 5706 5706 5706 5707
5808 5789 5788 5798 5797 5806 5818 5834 5816 5811 5810 5810 5818 5789 5797 5806 5812 5812 5807 5795 5790 5783 5772 5763 5756 5751 5749 5744 5741 5737 5733 5729 5726 5723 5720 5716 5713 5709 5707 5706 5705 5704 5703 5702 5703 5702 5701 5702 5702
5819 5813 5811 5813 5798 5796 5826 5825 5828 5821 5809 5834 5831 5792 5784 5802 5812 5809 5804 5793 5780 5780 5773 5765 5759 5752 5746 5742 5739 5735 5731 5727 5723 5719 5715 5713 5710 5707 5704 5702 5700 5700 5698 5697 5697 5697 5696 5697 5697
5851 5811 5798 5812 5805 5812 5832 5819 5836 5841 5822 5823 5821 5812 5810 5812 5811 5802 5795 5788 5783 5772 5772 5764 5758 5752 5748 5742 5737 5732 5728 5723 5718 5715 5713 5711 5708 5704 5700 5698 5696 5696 5693 5691 5690 5691 5691 5692 5694
5840 5803 5825 5839 5836 5824 5835 5826 5826 5823 5816 5812 5812 5816 5816 5811 5805 5792 5783 5776 5773 5770 5762 5760 5755 5751 5745 5741 5736 5730 5726 5718 5715 5711 5709 5708 5705 5702 5700 5695 5692 5691 5689 5687 5688 5685 5686 5685 5686
5848 5823 5846 5846 5849 5846 5833 5831 5847 5824 5806 5812 5807 5808 5809 5804 5801 5792 5784 5781 5775 5772 5767 5761 5749 5744 5739 5736 5730 5725 5724 5717 5710 5705 5704 5701 5699 5696 5694 5691 5687 5685 5684 5683 5682 5679 5679 5678 5679
5832 5850 5844 5850 5855 5849 5835 5844 5834 5830 5823 5831 5825 5819 5810 5800 5796 5792 5784 5780 5776 5771 5768 5760 5753 5742 5733 5727 5723 5718 5714 5711 5706 5701 5698 5694 5693 5692 5688 5687 5684 5682 5680 5678 5676 5674 5674 5673 5673
5829 5835 5848 5847 5843 5848 5851 5820 5818 5827 5838 5837 5828 5819 5809 5803 5796 5795 5792 5786 5777 5770 5762 5756 5751 5743 5737 5729 5724 5719 5709 5704 5700 5695 5691 5690 5690 5688 5686 5682 5680 5678 5675 5671 5669 5669 5668 5669 5668
5846 5842 5840 5843 5837 5837 5831 5812 5794 5819 5831 5827 5822 5813 5810 5805 5798 5794 5787 5778 5774 5769 5759 5755 5749 5743 5735 5729 5724 5718 5709 5702 5695 5693 5691 5689 5687 5686 5683 5678 5676 5674 5670 5667 5666 5662 5663 5664 5662
5840 5818 5828 5832 5840 5818 5838 5813 5812 5826 5820 5821 5821 5815 5812 5807 5804 5798 5795 5782 5778 5770 5764 5754 5748 5741 5733 5725 5720 5713 5707 5702 5696 5694 5692 5687 5686 5683 5678 5673 5673 5668 5665 5663 5661 5659 5659 5657 5657
5823 5806 5776 5819 5826 5834 5817 5769 5804 5815 5807 5813 5819 5817 5812 5809 5807 5806 5800 5791 5784 5774 5766 5758 5751 5740 5731 5724 5716 5711 5706 5702 5699 5693 5689 5686 5680 5678 5675 5669 5667 5664 5660 5657 5654 5653 5650 5649 5648
5821 5783 5778 5806 5849 5821 5810 5773 5773 5796 5775 5809 5814 5819 5815 5809 5809 5805 5802 5795 5786 5777 5768 5758 5749 5738 5730 5721 5714 5709 5705 5700 5696 5692 5686 5682 5680 5673 5672 5666 5663 5658 5654 5650 5648 5646 5643 5640 5643
5794 5801 5809 5808 5818 5808 5795 5772 5775 5769 5766 5791 5790 5796 5808 5806 5807 5807 5802 5796 5787 5778 5768 5757 5747 5738 5728 5720 5714 5707 5704 5699 5696 5692 5687 5681 5678 5670 5667 5662 5656 5653 5648 5645 5643 5641 5639 5636 5636
5846 5831 5821 5812 5810 5792 5778 5750 5769 5773 5793 5798 5786 5750 5796 5807 5814 5808 5799 5791 5781 5771 5762 5752 5743 5733 5726 5715 5706 5701 5696 5696 5693 5690 5686 5681 5674 5667 5663 5658 5653 5650 5644 5642 5640 5637 5633 5633 5632
5840 5828 5818 5812 5807 5793 5782 5764 5779 5777 5776 5801 5779 5775 5785 5802 5803 5796 5791 5784 5776 5765 5758 5747 5738 5729 5722 5714 5707 5703 5700 5695 5692 5689 5683 5678 5671 5665 5660 5656 5651 5646 5641 5638 5636 5632 5628 5628 5628
5836 5823 5814 5803 5807 5796 5777 5764 5766 5767 5776 5795 5789 5791 5801 5807 5798 5793 5787 5775 5769 5761 5754 5744 5734 5726 5717 5710 5704 5699 5697 5691 5686 5682 5677 5675 5671 5665 5660 5655 5650 5645 5640 5634 5630 5629 5626 5621 5625
5815 5843 5833 5816 5792 5759 5781 5723 5758 5748 5755 5763 5777 5780 5802 5804 5797 5793 5785 5774 5768 5756 5748 5738 5727 5717 5709 5702 5696 5691 5684 5678 5679 5678 5675 5670 5667 5664 5658 5654 5649 5643 5639 5634 5631 5629 5625 5621 5616
5829 5845 5830 5815 5783 5764 5762 5739 5740 5742 5739 5738 5754 5780 5798 5797 5793 5785 5778 5767 5758 5750 5741 5732 5723 5713 5705 5698 5692 5686 5681 5677 5677 5672 5669 5666 5664 5662 5658 5653 5648 5643 5639 5635 5630 5628 5624 5621 5617
5861 5835 5821 5797 5773 5730 5769 5753 5741 5734 5743 5738 5762 5786 5792 5792 5789 5784 5777 5767 5755 5748 5736 5728 5717 5709 5705 5702 5699 5689 5681 5675 5671 5669 5665 5664 5662 5662 5656 5650 5647 5643 5639 5635 5632 5627 5624 5621 5619
5846 5801 5753 5746 5727 5723 5774 5751 5748 5749 5761 5778 5783 5784 5791 5795 5785 5778 5769 5764 5753 5743 5733 5724 5713 5708 5705 5700 5693 5690 5685 5678 5670 5666 5661 5659 5658 5658 5654 5650 5645 5643 5640 5637 5634 5628 5625 5622 5618
5836 5796 5750 5733 5727 5733 5761 5735 5749 5767 5768 5784 5790 5781 5792 5786 5780 5777 5769 5764 5754 5741 5733 5723 5715 5708 5696 5690 5686 5690 5687 5680 5672 5665 5662 5659 5655 5654 5653 5648 5645 5643 5641 5638 5633 5628 5624 5622 5620
5814 5786 5805 5769 5761 5727 5729 5748 5766 5752 5741 5755 5768 5772 5783 5783 5780 5777 5770 5762 5751 5740 5734 5726 5719 5707 5697 5689 5688 5692 5688 5678 5672 5666 5663 5661 5657 5655 5652 5649 5645 5645 5642 5638 5633 5629 5625 5622 5620
5820 5824 5771 5764 5729 5729 5715 5733 5730 5759 5776 5761 5771 5780 5784 5788 5780 5777 5771 5763 5757 5749 5741 5733 5727 5717 5696 5683 5692 5684 5687 5679 5668 5666 5662 5660 5657 5654 5652 5649 5647 5645 5641 5637 5634 5629 5625 5620 5617
5791 5787 5763 5758 5748 5716 5715 5726 5764 5751 5764 5768 5780 5781 5789 5785 5776 5770 5767 5768 5758 5752 5742 5733 5726 5717 5706 5696 5690 5680 5661 5671 5665 5666 5664 5661 5656 5653 5651 5650 5646 5640 5637 5633 5628 5623 5619 5616 5612
5808 5784 5767 5736 5751 5752 5747 5721 5765 5762 5758 5774 5773 5784 5793 5787 5779 5772 5767 5770 5762 5747 5739 5729 5721 5713 5702 5701 5692 5673 5668 5669 5664 5666 5665 5663 5657 5655 5652 5649 5643 5633 5629 5624 5620 5616 5613 5610 5607